Location: Ca�n Batista
(41.4099°N, 1.7752°E)
Time: 15:07:37
(UTC+00:00)

Cosmos 1862 Rocket - Pass Details

Date: 03 March 2021
Orbit: 603 x 635 km, 82.5° (Epoch: 21 April)

Event Time Altitude Azimuth Distance (km) Brightness Sun altitude
Rises 19:00:49 0° 346° (NNW) 2,941 7.3 -14.8°
Reaches altitude 10° 19:03:07 10° 342° (NNW) 2,028 6.5 -15.2°
Maximum altitude 19:07:29 52° 266° (W) 795 4.5 -16.1°
Drops below altitude 10° 19:11:47 10° 191° (S) 2,005 6.2 -16.9°
Sets 19:14:03 0° 186° (S) 2,904 7.0 -17.3°
